Location: Sternwarte Stuttgart
(48.7670°N, 9.1830°E)
Time: 03:40:17
(UTC+01:00)

ISS - All Passes

Search period start: 10 February 2016 00:00
Search period end: 20 February 2016 00:00
Orbit: 398 x 408 km, 51.6° (Epoch: 09 February)

Date Brightness Start Highest point End Pass type
(mag) Time Alt. Az. Time Alt. Az. Time Alt. Az.
10 Feb - 15:19:12 10° SE 15:19:49 10° SE 15:20:27 10° ESE daylight
10 Feb - 16:52:30 10° SW 16:55:40 53° SSE 16:58:51 10° ENE daylight
10 Feb - 18:28:57 10° W 18:32:09 54° N 18:35:21 10° ENE visible
10 Feb - 20:05:40 10° WNW 20:08:53 57° N 20:12:06 10° E visible
10 Feb - 21:42:12 10° WNW 21:45:19 46° SSW 21:48:27 10° SE night (unlit)
11 Feb - 16:00:09 10° SSW 16:03:07 33° SE 16:06:05 10° E daylight
11 Feb - 17:36:11 10° W 17:39:26 66° NNW 17:42:41 10° ENE daylight
11 Feb - 19:12:58 10° WNW 19:16:09 49° N 19:19:19 10° E visible
11 Feb - 20:49:29 10° WNW 20:52:44 72° SSW 20:55:57 10° ESE visible
11 Feb - 22:26:45 10° W 22:28:43 15° SW 22:30:42 10° S night (unlit)
12 Feb - 15:08:07 10° S 15:10:36 20° SE 15:13:06 10° E daylight
12 Feb - 16:43:28 10° WSW 16:46:44 90° NW 16:50:00 10° ENE daylight
12 Feb - 18:20:12 10° WNW 18:23:22 48° N 18:26:33 10° ENE visible
12 Feb - 19:56:48 10° WNW 20:00:03 79° NNE 20:03:18 10° ESE visible
12 Feb - 21:33:32 10° W 21:36:15 25° SW 21:38:57 10° SSE visible
13 Feb - 14:16:42 10° SSE 14:18:08 12° SE 14:19:35 10° ESE daylight
13 Feb - 15:50:50 10° SW 15:54:03 61° SSE 15:57:16 10° ENE daylight
13 Feb - 17:27:23 10° W 17:30:35 51° N 17:33:46 10° ENE daylight
13 Feb - 19:04:04 10° WNW 19:07:18 60° NNE 19:10:31 10° E visible
13 Feb - 20:40:37 10° WNW 20:43:41 39° SSW 20:46:44 10° SE visible
14 Feb - 14:58:21 10° SW 15:01:24 38° SSE 15:04:28 10° ENE daylight
14 Feb - 16:34:33 10° W 16:37:47 62° NNW 16:41:00 10° ENE daylight
14 Feb - 18:11:19 10° WNW 18:14:30 51° N 18:17:41 10° E visible
14 Feb - 19:47:49 10° WNW 19:51:02 63° SSW 19:54:14 10° SE visible
14 Feb - 21:25:24 10° WSW 21:26:58 13° SW 21:28:31 10° SSW visible
15 Feb - 14:06:08 10° SSW 14:08:49 24° SE 14:11:29 10° E daylight
15 Feb - 15:41:44 10° WSW 15:44:59 81° NNW 15:48:15 10° ENE daylight
15 Feb - 17:18:29 10° WNW 17:21:39 48° N 17:24:49 10° ENE daylight
15 Feb - 18:55:02 10° WNW 18:58:18 87° NNE 19:01:33 10° ESE visible
15 Feb - 20:31:53 10° W 20:34:26 21° SW 20:36:59 10° SSE visible
16 Feb - 13:14:22 10° S 13:16:15 15° SE 13:18:08 10° ESE daylight
16 Feb - 14:48:59 10° WSW 14:52:13 70° SSE 14:55:28 10° ENE daylight
16 Feb - 16:25:35 10° W 16:28:47 50° N 16:31:58 10° ENE daylight
16 Feb - 18:02:15 10° WNW 18:05:29 65° NNE 18:08:43 10° E daylight
16 Feb - 19:38:50 10° W 19:41:49 34° SSW 19:44:48 10° SSE visible
17 Feb - 13:56:22 10° SW 13:59:29 44° SSE 14:02:37 10° ENE daylight
17 Feb - 15:32:41 10° W 15:35:54 58° N 15:39:07 10° ENE daylight
17 Feb - 17:09:25 10° WNW 17:12:37 53° N 17:15:49 10° E daylight
17 Feb - 18:45:55 10° WNW 18:49:06 55° SSW 18:52:17 10° SE visible
17 Feb - 20:24:01 10° WSW 20:24:58 11° SW 20:25:55 10° SSW visible
18 Feb - 13:03:58 10° SSW 13:06:48 27° SE 13:09:37 10° E daylight
18 Feb - 14:39:46 10° WSW 14:43:02 75° NNW 14:46:17 10° ENE daylight
18 Feb - 16:16:32 10° WNW 16:19:42 48° N 16:22:53 10° E daylight
18 Feb - 17:53:04 10° WNW 17:56:19 85° SSW 17:59:34 10° ESE daylight
18 Feb - 19:30:03 10° W 19:32:23 18° SW 19:34:44 10° S visible
19 Feb - 12:11:57 10° S 12:14:08 17° SE 12:16:20 10° E daylight
19 Feb - 13:46:54 10° WSW 13:50:10 78° SSE 13:53:26 10° ENE daylight
19 Feb - 15:23:34 10° W 15:26:46 49° N 15:29:56 10° ENE daylight
19 Feb - 17:00:12 10° WNW 17:03:27 70° NNE 17:06:42 10° E daylight
19 Feb - 18:36:49 10° W 18:39:43 30° SW 18:42:36 10° SSE visible
